• En España
  • Lista de países
  • Para 7 días
  • Temperatura del agua
  • Mapa Satelital
  • El tiempo en el mapa
  • Informadores
  • user-avatar
    Iniciar sesión

    Tiempo cada hora Albany

    Hoy, 25 Noviembre, Sábado

    Tiempo Temperatura Precipitaciones Viento Presión Humedad
    00:00 +16°C° 0 mm 3 mps 755 mmHg 90%
    01:00 +16°C° 0 mm 3 mps 755 mmHg 89%
    02:00 +14°C° 0 mm 3 mps 756 mmHg 89%
    03:00 +14°C° 0 mm 3 mps 756 mmHg 88%
    04:00 +14°C° 0 mm 3 mps 756 mmHg 87%
    05:00 +14°C° 0 mm 3 mps 756 mmHg 87%
    06:00 +17°C° 0 mm 4 mps 757 mmHg 80%
    07:00 +18°C° 0 mm 4 mps 757 mmHg 73%
    08:00 +21°C° 0 mm 4 mps 757 mmHg 65%
    09:00 +21°C° 0 mm 4 mps 757 mmHg 63%
    10:00 +22°C° 0 mm 4 mps 757 mmHg 61%
    11:00 +23°C° 0 mm 5 mps 757 mmHg 59%
    12:00 +22°C° 0 mm 5 mps 757 mmHg 62%
    13:00 +22°C° 0 mm 5 mps 757 mmHg 64%
    14:00 +21°C° 0 mm 5 mps 757 mmHg 66%
    15:00 +21°C° 0 mm 5 mps 757 mmHg 68%
    16:00 +20°C° 0 mm 5 mps 757 mmHg 69%
    17:00 +20°C° 0 mm 5 mps 758 mmHg 71%
    18:00 +19°C° 0 mm 5 mps 758 mmHg 75%
    19:00 +16°C° 0 mm 5 mps 758 mmHg 79%
    20:00 +15°C° 0 mm 5 mps 758 mmHg 84%
    21:00 +15°C° 0 mm 4 mps 758 mmHg 85%
    22:00 +15°C° 0 mm 4 mps 758 mmHg 86%
    23:00 +14°C° 0 mm 4 mps 759 mmHg 87%

    Mañana, 26 Noviembre, Domingo

    Tiempo Temperatura Precipitaciones Viento Presión Humedad
    00:00 +14°C° 0 mm 4 mps 758 mmHg 87%
    01:00 +14°C° 0 mm 4 mps 758 mmHg 87%
    02:00 +14°C° 0 mm 4 mps 757 mmHg 87%
    03:00 +14°C° 0 mm 4 mps 757 mmHg 85%
    04:00 +15°C° 0 mm 4 mps 757 mmHg 83%
    05:00 +15°C° 0 mm 4 mps 757 mmHg 81%
    06:00 +17°C° 0,1 mm 4 mps 758 mmHg 79%
    07:00 +17°C° 0,1 mm 4 mps 758 mmHg 76%
    08:00 +17°C° 0,1 mm 5 mps 758 mmHg 73%
    09:00 +19°C° 0 mm 5 mps 757 mmHg 70%
    10:00 +20°C° 0 mm 5 mps 757 mmHg 66%
    11:00 +21°C° 0 mm 6 mps 757 mmHg 63%
    12:00 +21°C° 0 mm 6 mps 756 mmHg 63%
    13:00 +21°C° 0 mm 6 mps 756 mmHg 63%
    14:00 +21°C° 0 mm 6 mps 756 mmHg 63%
    15:00 +20°C° 0 mm 6 mps 755 mmHg 66%
    16:00 +20°C° 0 mm 6 mps 755 mmHg 68%
    17:00 +19°C° 0 mm 6 mps 755 mmHg 70%
    18:00 +17°C° 0 mm 6 mps 755 mmHg 75%
    19:00 +16°C° 0 mm 6 mps 755 mmHg 79%
    20:00 +15°C° 0 mm 6 mps 755 mmHg 84%
    21:00 +16°C° 0 mm 6 mps 755 mmHg 83%
    22:00 +16°C° 0 mm 6 mps 754 mmHg 83%
    23:00 +16°C° 0 mm 6 mps 754 mmHg 82%

    Pasado mañana, 27 Noviembre, Lunes

    Tiempo Temperatura Precipitaciones Viento Presión Humedad
    00:00 +16°C° 0 mm 6 mps 754 mmHg 84%
    01:00 +15°C° 0 mm 5 mps 753 mmHg 86%
    02:00 +15°C° 0 mm 5 mps 752 mmHg 87%
    03:00 +15°C° 0 mm 5 mps 752 mmHg 88%
    04:00 +17°C° 0 mm 4 mps 752 mmHg 88%
    05:00 +17°C° 0 mm 4 mps 751 mmHg 89%
    06:00 +18°C° 0 mm 4 mps 751 mmHg 88%
    07:00 +18°C° 0 mm 4 mps 751 mmHg 87%
    08:00 +19°C° 0 mm 5 mps 752 mmHg 86%
    09:00 +19°C° 0 mm 5 mps 751 mmHg 85%
    10:00 +19°C° 0 mm 4 mps 751 mmHg 84%
    11:00 +20°C° 0 mm 4 mps 751 mmHg 83%
    12:00 +20°C° 0 mm 4 mps 750 mmHg 80%
    13:00 +21°C° 0 mm 4 mps 750 mmHg 77%
    14:00 +21°C° 0 mm 4 mps 749 mmHg 75%
    15:00 +21°C° 0 mm 4 mps 750 mmHg 76%
    16:00 +20°C° 0 mm 5 mps 750 mmHg 77%
    17:00 +20°C° 0 mm 5 mps 750 mmHg 79%
    18:00 +19°C° 0,1 mm 5 mps 750 mmHg 82%
    19:00 +18°C° 0,1 mm 4 mps 750 mmHg 86%
    20:00 +18°C° 0,1 mm 4 mps 751 mmHg 90%
    21:00 +17°C° 0,1 mm 4 mps 751 mmHg 91%
    22:00 +17°C° 0,1 mm 4 mps 751 mmHg 92%
    23:00 +17°C° 0,1 mm 4 mps 751 mmHg 93%

    28 Noviembre, Martes

    Tiempo Temperatura Precipitaciones Viento Presión Humedad
    00:00 +17°C° 0 mm 4 mps 751 mmHg 93%
    01:00 +15°C° 0 mm 4 mps 750 mmHg 92%
    02:00 +15°C° 0 mm 4 mps 750 mmHg 92%
    03:00 +15°C° 0,1 mm 4 mps 750 mmHg 90%
    04:00 +15°C° 0,1 mm 5 mps 750 mmHg 89%
    05:00 +15°C° 0,1 mm 5 mps 750 mmHg 87%
    06:00 +15°C° 0,1 mm 5 mps 751 mmHg 82%
    07:00 +15°C° 0,1 mm 6 mps 751 mmHg 78%
    08:00 +15°C° 0,1 mm 6 mps 752 mmHg 73%
    09:00 +16°C° 0 mm 6 mps 752 mmHg 69%
    10:00 +17°C° 0 mm 6 mps 752 mmHg 65%
    11:00 +17°C° 0 mm 6 mps 752 mmHg 61%
    12:00 +20°C° 0 mm 7 mps 752 mmHg 56%
    13:00 +21°C° 0 mm 7 mps 752 mmHg 51%
    14:00 +22°C° 0 mm 7 mps 752 mmHg 46%
    15:00 +21°C° 0,1 mm 7 mps 752 mmHg 52%
    16:00 +20°C° 0,1 mm 7 mps 752 mmHg 58%
    17:00 +18°C° 0,1 mm 8 mps 752 mmHg 64%
    18:00 +17°C° 0 mm 7 mps 753 mmHg 67%
    19:00 +15°C° 0 mm 6 mps 754 mmHg 70%
    20:00 +14°C° 0 mm 6 mps 755 mmHg 72%
    21:00 +14°C° 0 mm 5 mps 755 mmHg 72%
    22:00 +13°C° 0 mm 5 mps 756 mmHg 72%
    23:00 +13°C° 0 mm 4 mps 756 mmHg 72%

    29 Noviembre, Miércoles

    Tiempo Temperatura Precipitaciones Viento Presión Humedad
    00:00 +12°C° 0 mm 4 mps 756 mmHg 72%
    01:00 +12°C° 0 mm 4 mps 756 mmHg 72%
    02:00 +12°C° 0 mm 4 mps 756 mmHg 72%
    03:00 +12°C° 0 mm 4 mps 756 mmHg 71%
    04:00 +12°C° 0 mm 4 mps 756 mmHg 70%
    05:00 +12°C° 0 mm 4 mps 757 mmHg 68%
    06:00 +13°C° 0 mm 3 mps 757 mmHg 63%
    07:00 +14°C° 0 mm 3 mps 758 mmHg 58%
    08:00 +17°C° 0 mm 3 mps 759 mmHg 53%
    09:00 +17°C° 0 mm 4 mps 759 mmHg 52%
    10:00 +18°C° 0 mm 4 mps 759 mmHg 51%
    11:00 +18°C° 0 mm 4 mps 759 mmHg 50%
    12:00 +18°C° 0 mm 4 mps 759 mmHg 51%
    13:00 +18°C° 0 mm 4 mps 759 mmHg 51%
    14:00 +18°C° 0 mm 4 mps 759 mmHg 52%
    15:00 +18°C° 0 mm 4 mps 759 mmHg 53%
    16:00 +17°C° 0 mm 4 mps 759 mmHg 53%
    17:00 +17°C° 0 mm 4 mps 759 mmHg 54%
    18:00 +15°C° 0 mm 4 mps 759 mmHg 59%
    19:00 +14°C° 0 mm 4 mps 760 mmHg 63%
    20:00 +12°C° 0 mm 3 mps 760 mmHg 68%
    21:00 +12°C° 0 mm 4 mps 760 mmHg 70%
    22:00 +12°C° 0 mm 4 mps 761 mmHg 72%
    23:00 +12°C° 0 mm 4 mps 761 mmHg 75%

    30 Noviembre, Jueves

    Tiempo Temperatura Precipitaciones Viento Presión Humedad
    00:00 +11°C° 0 mm 4 mps 760 mmHg 75%
    01:00 +11°C° 0 mm 4 mps 760 mmHg 75%
    02:00 +11°C° 0 mm 4 mps 760 mmHg 76%
    03:00 +12°C° 0 mm 4 mps 760 mmHg 74%
    04:00 +12°C° 0 mm 4 mps 760 mmHg 73%
    05:00 +12°C° 0 mm 4 mps 761 mmHg 72%
    06:00 +13°C° 0,1 mm 4 mps 761 mmHg 71%
    07:00 +13°C° 0,1 mm 4 mps 762 mmHg 70%
    08:00 +14°C° 0,1 mm 5 mps 762 mmHg 69%
    09:00 +14°C° 0,1 mm 5 mps 762 mmHg 69%
    10:00 +14°C° 0,1 mm 5 mps 762 mmHg 69%
    11:00 +14°C° 0,1 mm 4 mps 762 mmHg 69%
    12:00 +15°C° 0,1 mm 4 mps 761 mmHg 66%
    13:00 +15°C° 0,1 mm 5 mps 761 mmHg 63%
    14:00 +16°C° 0,1 mm 5 mps 761 mmHg 60%
    15:00 +16°C° 0 mm 5 mps 761 mmHg 60%
    16:00 +15°C° 0 mm 5 mps 761 mmHg 59%
    17:00 +15°C° 0 mm 5 mps 761 mmHg 59%
    18:00 +14°C° 0 mm 5 mps 762 mmHg 61%
    19:00 +14°C° 0 mm 4 mps 762 mmHg 64%
    20:00 +13°C° 0 mm 4 mps 763 mmHg 66%
    21:00 +12°C° 0 mm 4 mps 763 mmHg 68%
    22:00 +12°C° 0 mm 4 mps 763 mmHg 70%
    23:00 +11°C° 0 mm 3 mps 763 mmHg 72%
    Mostrar más